Other Public Products
Issued by NWS Grand Forks, ND

Home | Current Version | Previous Version | Graphics & Text | Print | Product List | Glossary On
Versions: 1 2 3 4 5 6 7 8 9 10 11 12 13 14 15 16 17 18 19 20 21 22 23 24 25 26 27 28 29 30 31 32 33 34 35 36 37 38 39 40 41 42 43 44 45 46 47 48 49 50
000
FPUS83 KFGF 270331
OPUFGF
PRAIRIE TO PINES WEATHER ROUNDUP
NATIONAL WEATHER SERVICE EASTERN NORTH DAKOTA/GRAND FORKS ND
1000 PM CDT SUN APR 26 2015

 **SATELLITE DATA USED TO AUGMENT SKY COVER AT AUTOMATED STATIONS**
 *****  WEATHER ACROSS EASTERN NORTH DAKOTA  *****

CITY           SKY/WX    TMP DP  RH WIND       PRES   REMARKS
GRAND FORKS    PTCLDY    53  29  39 CALM      30.12R
GRAND FORKS AF PTCLDY    48  26  41 SE3       30.12S
GRAND CITY NWS   N/A     48 N/A N/A NE3         N/A
BUXTON           N/A     58  21  24 CALM        N/A
DEVILS LAKE    PTCLDY    46  41  81 N8        30.14R
FARGO          PTCLDY    51  28  41 CALM      30.12R
WAHPETON ARPT  PTCLDY    46  27  46 CALM      30.14R
$$

 *****  WEATHER ACROSS CENTRAL AND WESTERN NORTH DAKOTA  *****

CITY           SKY/WX    TMP DP  RH WIND       PRES   REMARKS
JAMESTOWN      CLEAR     47  30  51 E6        30.12R
BISMARCK       CLOUDY    51  47  86 N7        30.14R
MINOT          LGT RAIN  48  45  89 W7        30.14R
MINOT AFB      CLOUDY    47  47 100 W5        30.14R
GARRISON         N/A     46  45  96 CALM      30.15R
WILLISTON      CLOUDY    50  33  52 N7        30.17R
DICKINSON      LGT RAIN  43  40  89 N7        30.14R
HETTINGER      CLOUDY    45  43  93 N8        30.14R FOG
$$

 *****  OTHER OBSERVATIONS NORTHEAST NORTH DAKOTA  *****

CITY           SKY/WX    TMP DP  RH WIND       PRES   REMARKS
WALHALLA       CLOUDY    55  46  71 CALM      30.14S
LANGDON        FAIR      46  41  81 NW6       30.15S
CAVALIER       FAIR      50  41  71 NW3       30.14R
GRAFTON        FAIR      50  32  50 NW10      30.14R
CANDO          MOCLDY    46  45  93 CALM      30.16R FOG
FORT TOTTEN    NOT AVBL
ROLLA          CLOUDY    46  46 100 CALM      30.15R
RUGBY            N/A    N/A N/A N/A CALM      30.15R
 ***** THE ABOVE OBSERVATIONS ARE NON NWS ARE NOT QUALITY
        CONTROLLED AND MAY MIS-REPORT RAIN FOR SNOW...
$$

 *****  OTHER OBSERVATIONS SOUTHEAST NORTH DAKOTA *****

CITY           SKY/WX    TMP DP  RH WIND       PRES   REMARKS
COOPERSTOWN    NOT AVBL
VALLEY CITY    FAIR      50  28  43 CALM      30.13R
OAKES            N/A     45  28  53 E9        30.13R
GWINNER        CLEAR     48  28  46 E6        30.15R
SHEYENNE NWR     N/A     47  26  44 SE5       29.95S
BUFFALO        NOT AVBL
WYNDMERE       NOT AVBL
 ***** THE ABOVE OBSERVATIONS ARE NON NWS ARE NOT QUALITY
       CONTROLLED AND MAY MIS-REPORT RAIN FOR SNOW...
$$

  *****  WEATHER ACROSS NORTHERN MINNESOTA  *****

CITY           SKY/WX    TMP DP  RH WIND       PRES   REMARKS
FLAG ISLAND    CLEAR     46  28  49 CALM      30.15S
WARROAD        PTCLDY    43  30  61 E3        30.17R
ROSEAU         PTCLDY    46  28  49 CALM      30.16R
HALLOCK        MOCLDY    48  23  37 CALM      30.13R
THF RVR FALLS  PTCLDY    52  21  30 SE6       30.15S
HALSTAD          N/A     49  18  29 NE5         N/A
FOSSTON        CLEAR     46  27  46 CALM      30.16R
BAUDETTE       CLEAR     47  24  40 E3        30.16R
WASKISH        CLEAR     39  30  70 CALM      30.17R
CROOKSTON      PTCLDY    52  25  35 SE6       30.15R
$$
  *****  WEATHER ACROSS CENTRAL AND WEST MINNESOTA  *****

CITY           SKY/WX    TMP DP  RH WIND       PRES   REMARKS
BEMIDJI        CLEAR     45  24  43 CALM      30.15S
PARK RAPIDS    CLEAR     51  21  30 E5        30.14R
WADENA         CLEAR     45  19  36 E3        30.15R
DETROIT LAKES  CLEAR     52  21  30 CALM      30.16R
MOORHEAD       PTCLDY    54  25  32 CALM      30.14R
FERGUS FALLS   PTCLDY    52  18  25 E3        30.15R
ELBOW LAKE     FAIR      51  29  42 E5        30.14R
MORRIS MN      CLEAR     48  19  32 E7        30.14R
STAPLES        CLEAR     41  27  56 CALM      30.15R
WHEATON        PTCLDY    46  23  39 CALM      30.16R
$$
  *****  WEATHER ELSEWHERE ACROSS MINNESOTA  *****

CITY           SKY/WX    TMP DP  RH WIND       PRES   REMARKS
DULUTH         CLEAR     40  24  53 CALM      30.16R
INTRNTL FALLS  CLEAR     34  18  52 CALM      30.17R
ELY            CLEAR     37  27  65 CALM      30.16R
CLOQUET        CLEAR     37  23  56 CALM      30.16S
BRAINERD       CLEAR     43  32  65 CALM      30.14R
HIBBING        CLEAR     40  18  41 SE5       30.16R
ALEXANDRIA     CLEAR     50  21  32 SE3       30.15R
SAINT CLOUD    PTCLDY    51  19  28 CALM      30.14R
MINNEAPOLIS    PTCLDY    54  24  31 N9        30.12R
$$

  *****  WEATHER ACROSS SOUTH DAKOTA  *****

CITY           SKY/WX    TMP DP  RH WIND       PRES   REMARKS
SIOUX FALLS    CLEAR     50  35  56 NE7       30.09R
BROOKINGS      CLEAR     52  30  43 NE7       30.13R
WATERTOWN      CLEAR     51  25  36 E7        30.13R
HURON          PTCLDY    52  32  46 E9        30.09R
SISSETON         N/A     50  27  40 SE5       30.12R
ABERDEEN       PTCLDY    53  32  44 E8        30.12R
MITCHELL       PTCLDY    51  39  63 E7        30.09R
PIERRE         CLOUDY    53  32  44 E5        30.09R
MOBRIDGE       CLOUDY    56  34  43 E7        30.08R
RAPID CITY     CLOUDY    47  44  90 W3        30.11R
$$

  *****  SOME WEATHER IN NEARBY STATES *****

CITY           SKY/WX    TMP DP  RH WIND       PRES   REMARKS
GLASGOW MT     CLOUDY    42  33  70 W5        30.21S
GREAT FALLS MT CLEAR     33  29  85 SW7       30.21R
CHEYENNE WY    CLOUDY    38  37  97 E6        30.07R FOG
SCOTTSBLUFF NE CLOUDY    45 N/A N/A E10       30.10R
OMAHA NE       PTCLDY    54  34  46 E6        30.06R
DES MOINES IA  CLEAR     55  24  30 E5        30.07R
DAVENPORT IA   CLEAR     48  32  53 N3        30.05R
CHICAGO IL     CLEAR     44  24  45 N12       30.03R
EAU CLAIRE WI  CLEAR     49  25  39 N8        30.12R
LA CROSSE WI   CLEAR     51  30  44 N6        30.07R
$$

  *****  SOME NATIONAL WEATHER *****

CITY           SKY/WX    TMP DP  RH WIND       PRES   REMARKS
LA GUARDIA NY  PTCLDY    53  30  41 NW15G21   29.68S
RALEIGH NC     MOCLDY    48  46  93 CALM      29.78S
ATLANTA GA     PTCLDY    63  52  67 NW14G22   29.77R
NEW ORLEANS LA CLOUDY    77  70  79 S13       29.71F
OKLAHOMA CITY  TSTM      61  54  77 N14       29.82R
ALBUQUERQUE NM LGT RAIN  48  43  82 W6        29.83R
SALT LAKE CITY MOCLDY    49  37  63 E5        30.09R
LOS ANGELES CA PTCLDY    63  51  65 W13       29.89R
BOISE ID       CLEAR     54  21  27 N7        30.16R
SEATTLE WA     CLOUDY    56  42  59 S8        30.23S
$$

*** WEATHER ACROSS MANITOBA...SASKATCHEWAN AND ONTARIO ***
                ***ONTARIO***

CITY           SKY/WX    TMP DP  RH WIND       PRES   REMARKS
GERALDTON      CLEAR     41  28  60 N8        30.17R
THUNDER BAY    CLEAR     39  28  65 CALM      30.16S
SIOUX LOOKOUT  PTCLDY    39  25  56 E2        30.19S
TORONTO        MOCLDY    46  32  57 NW12      29.82F
BIG TROUT LK   CLEAR     34  27  75 E3        30.29S
PICKLE LAKE    NOT AVBL
DRYDEN         CLEAR     48  28  46 NE3       30.18S
KENORA         PTCLDY    52  16  24 E7        30.18S
$$
                *** MANITOBA***

CITY           SKY/WX    TMP DP  RH WIND       PRES   REMARKS
BRANDON        MOCLDY    48  45  87 W7        30.13R
DAUPHIN        CLEAR     45  37  76 W15       30.13R
ISLAND LAKE    CLOUDY    46  27  46 SE10      30.16F
PILOT MOUND      N/A     50  45  81 SW5         N/A
THE PAS        CLOUDY    37  37 100 W10       30.07S FOG
THOMPSON       CLOUDY    43  28  56 NE7       30.12F
WINNIPEG       MOCLDY    54  43  66 N2        30.14R
CHURCHILL      LGT SNOW  23  21  93 NE10      30.42S WCI  12
GILLAM         CLOUDY    39  25  56 E8        30.26S
$$
                ***SASKATCHEWAN***

CITY           SKY/WX    TMP DP  RH WIND       PRES   REMARKS
ESTEVAN        CLOUDY    43  34  70 NW14      30.19R
KINDERSLEY     MOCLDY    43  28  56 NE3       30.18R
LLOYDMINSTER   PTCLDY    41  21  45 SW8       30.14R
PRINCE ALBERT  MOCLDY    37  32  81 NW3       30.19R
REGINA         CLOUDY    39  34  81 W7        30.21R
YORKTON        CLOUDY    41  34  75 W9        30.17R


USA.gov is the U.S. government's official web portal to all federal, state and local government web resources and services.